STARLINK-1059

Last updated on Thu Dec 12 2019 00:02:04 GMT+0000 (Coordinated Universal Time)

1 44764U 19074BD 19345.25001157 -.00009904 00000-0 -66084-4 0 9991 2 44764 53.0094 23.1828 0002652 358.0810 319.4473 15.73234197 4683

Satellite not in orbit

STARLINK-1059